This is the latest recevied weather packets stored in our database for station/object JR5VPD-10. If no packets are shown the sender has not sent any weather packets the latest 10 day(s).
| Time | Temp. | Humidity | Pressure | Rain* | Wind** | Luminosity | Snow |
|---|---|---|---|---|---|---|---|
| 1787510172 | 30° C | 84% | 1011.3 hPa | 0 mm | 0 m/s | - | - |
| 1787508372 | 28.89° C | 87% | 1011.3 hPa | 0 mm | 0 m/s | - | - |
| 1787506572 | 28.89° C | 87% | 1011.2 hPa | 0 mm | 0 m/s | - | - |
| 1787504772 | 28.89° C | 87% | 1011.4 hPa | 0 mm | 0 m/s | - | - |
| 1787502972 | 28.89° C | 87% | 1011.3 hPa | 0 mm | 0 m/s | - | - |
| 1787501172 | 30° C | 82% | 1011.4 hPa | 0 mm | 0 m/s | - | - |
| 1787499372 | 28.89° C | 87% | 1011.4 hPa | 0 mm | 0 m/s | - | - |
| 1787497572 | 30° C | 82% | 1011.6 hPa | 0 mm | 0 m/s | - | - |
| 1787495772 | 30° C | 84% | 1011.7 hPa | 0 mm | 0 m/s | - | - |
| 1787493972 | 30° C | 83% | 1011.7 hPa | 0 mm | 0 m/s | - | - |
| 1787492172 | 30.56° C | 81% | 1011.7 hPa | 0 mm | 0 m/s | - | - |
| 1787490372 | 30.56° C | 80% | 1011.8 hPa | 0 mm | 0 m/s | - | - |
| 1787488572 | 30.56° C | 81% | 1011.8 hPa | 0 mm | 0 m/s | - | - |
| 1787486772 | 30.56° C | 74% | 1011.5 hPa | 0 mm | 0 m/s | - | - |
| 1787484972 | 30.56° C | 65% | 1011.1 hPa | 0 mm | 0 m/s | - | - |
| 1787483172 | 30.56° C | 65% | 1010.9 hPa | 0 mm | 0 m/s | - | - |
| 1787481372 | 30.56° C | 69% | 1010.7 hPa | 0 mm | 0 m/s | - | - |
| 1787479572 | 30.56° C | 71% | 1010.2 hPa | 0 mm | 0 m/s | - | - |
| 1787477772 | 31.67° C | 71% | 1010.2 hPa | 0 mm | 0 m/s | - | - |
| 1787475972 | 31.67° C | 72% | 1010.1 hPa | 0 mm | 0 m/s | - | - |
| 1787474172 | 31.67° C | 70% | 1010 hPa | 0 mm | 0 m/s | - | - |
| 1787472372 | 31.67° C | 65% | 1009.9 hPa | 0 mm | 0 m/s | - | - |
| 1787470572 | 32.78° C | 64% | 1009.7 hPa | 0 mm | 0 m/s | - | - |
| 1787468772 | 32.78° C | 63% | 1010 hPa | 0 mm | 0 m/s | - | - |
| 1787466972 | 32.78° C | 60% | 1010.1 hPa | 0 mm | 0 m/s | - | - |
* Rain latest hour (hover to see other rain measurements)
** Current wind speed in m/s (hover to see current wind gust speed)